sat.trackr.live / text

‹ back to catalog

BEIDOU-3 G1 (PRN 130)

NORAD 43683 · 2018-085A

PAYLOAD ACTIVE UNKNOWN

§ Identity

Operator
Country
PRC
Launch date
2018-11-01
Launch site
XICLF
Launch vehicle
Mass (kg)
RCS (m²)

Purposes: comms, nav

External: N2YO · Heavens-Above · Gunter

§ Orbital elements

Epoch: 2026-05-25T02:47:35.782368Z

Period
1,436.10 min
Inclination
2.8121°
Eccentricity
0.0008007
Mean motion
1.00271462 rev/d
Perigee alt
35,752.9 km
Apogee alt
35,820.4 km
Semi-major
42,164.8 km
B*
0.0000e+0
RAAN
97.9984°
Arg perigee
342.3074°
Mean anomaly
4.2674°
Rev number
2,782

§ Raw data

BEIDOU-3 G1 (PRN 130)1 43683U 18085A   26145.11638637 -.00000110  00000+0  00000+0 0  99902 43683   2.8121  97.9984 0008007 342.3074   4.2674  1.00271462 27829

JSON: /api/v1/satellites/43683 · /tle

For live sub-satellite position, see the globe view (requires WebGL).

§ Visibility from observer

Set your observer location to see the next 7 days of passes ≥ 10°. The values pass through the URL so the page stays shareable.

No JS? Fill the form by hand. The geolocation button needs JavaScript.